| time (UTC) | temp C | wind direction | speed KPH | gust KPH | rain 1hr cm | rain 24hr cm | rain mn cm | humidity % | barometer mb |
| 20260505102148 | 15 | 355 | 1.6 | 1.6 | 0.00 | 0.00 | 0.00 | 69 | 1016.9 |
| 20260505101647 | 15 | 341 | 3.2 | 3.2 | 0.00 | 0.00 | 0.00 | 68 | 1016.8 |
| 20260505101143 | 15 | 291 | 0.0 | 1.6 | 0.00 | 0.00 | 0.00 | 67 | 1016.7 |
| 20260505100639 | 15 | 228 | 3.2 | 3.2 | 0.00 | 0.00 | 0.00 | 68 | 1016.7 |
| 20260505100136 | 15 | 231 | 1.6 | 4.8 | 0.00 | 0.00 | 0.00 | 67 | 1016.6 |
| 20260505095632 | 15 | 39 | 3.2 | 3.2 | 0.00 | 0.00 | 0.00 | 66 | 1016.5 |
| 20260505095129 | 15 | 217 | 3.2 | 4.8 | 0.00 | 0.00 | 0.00 | 66 | 1016.5 |
| 20260505094626 | 15 | 207 | 6.4 | 8.0 | 0.00 | 0.00 | 0.00 | 66 | 1016.3 |
| 20260505094122 | 15 | 249 | 4.8 | 4.8 | 0.00 | 0.00 | 0.00 | 66 | 1016.4 |
| 20260505093618 | 15 | 234 | 6.4 | 8.0 | 0.00 | 0.00 | 0.00 | 66 | 1016.5 |
| 20260505093115 | 15 | 215 | 3.2 | 3.2 | 0.00 | 0.00 | 0.00 | 66 | 1016.3 |
| 20260505092613 | 15 | 246 | 4.8 | 8.0 | 0.00 | 0.00 | 0.00 | 66 | 1016.6 |
| 20260505092112 | 16 | 211 | 4.8 | 8.0 | 0.00 | 0.00 | 0.00 | 66 | 1016.3 |
| 20260505091608 | 16 | 227 | 4.8 | 8.0 | 0.00 | 0.00 | 0.00 | 65 | 1016.3 |
| 20260505091106 | 16 | 216 | 4.8 | 8.0 | 0.00 | 0.00 | 0.00 | 65 | 1016.2 |
| 20260505090604 | 16 | 221 | 6.4 | 8.0 | 0.00 | 0.00 | 0.00 | 65 | 1016.4 |
| 20260505085558 | 16 | 190 | 9.7 | 11.3 | 0.00 | 0.00 | 0.00 | 65 | 1016.0 |
| 20260505085057 | 15 | 240 | 6.4 | 9.7 | 0.00 | 0.00 | 0.00 | 65 | 1016.2 |
| 20260505084555 | 16 | 177 | 3.2 | 3.2 | 0.00 | 0.00 | 0.00 | 66 | 1016.0 |
| 20260505084052 | 16 | 357 | 3.2 | 4.8 | 0.00 | 0.00 | 0.00 | 65 | 1016.1 |
| 20260505083549 | 16 | 213 | 8.0 | 11.3 | 0.00 | 0.00 | 0.00 | 65 | 1016.1 |
| 20260505083046 | 16 | 245 | 9.7 | 11.3 | 0.00 | 0.00 | 0.00 | 65 | 1015.9 |
| 20260505082541 | 16 | 209 | 9.7 | 11.3 | 0.00 | 0.00 | 0.00 | 66 | 1016.0 |
| 20260505082039 | 16 | 275 | 8.0 | 9.7 | 0.00 | 0.00 | 0.00 | 66 | 1016.1 |
| 20260505081535 | 16 | 238 | 4.8 | 8.0 | 0.00 | 0.00 | 0.00 | 66 | 1016.1 |
| 20260505081032 | 16 | 5 | 4.8 | 4.8 | 0.00 | 0.00 | 0.00 | 65 | 1016.1 |
| 20260505080528 | 16 | 223 | 9.7 | 12.9 | 0.00 | 0.00 | 0.00 | 65 | 1016.2 |
| 20260505080025 | 16 | 256 | 8.0 | 9.7 | 0.00 | 0.00 | 0.00 | 65 | 1016.2 |
| 20260505075521 | 16 | 230 | 11.3 | 12.9 | 0.00 | 0.00 | 0.00 | 64 | 1016.2 |
| 20260505075018 | 16 | 217 | 8.0 | 11.3 | 0.00 | 0.00 | 0.00 | 64 | 1015.9 |
| 20260505074515 | 16 | 225 | 8.0 | 12.9 | 0.00 | 0.00 | 0.00 | 65 | 1016.0 |
| 20260505074013 | 16 | 249 | 4.8 | 8.0 | 0.00 | 0.00 | 0.00 | 65 | 1015.9 |
| 20260505073510 | 16 | 222 | 6.4 | 8.0 | 0.00 | 0.00 | 0.00 | 66 | 1016.2 |
| 20260505073008 | 16 | 195 | 8.0 | 11.3 | 0.00 | 0.00 | 0.00 | 65 | 1016.0 |
| 20260505072503 | 16 | 228 | 9.7 | 12.9 | 0.00 | 0.00 | 0.00 | 65 | 1016.0 |
| 20260505071959 | 16 | 243 | 3.2 | 4.8 | 0.00 | 0.00 | 0.00 | 65 | 1016.0 |
| 20260505071455 | 16 | 266 | 6.4 | 8.0 | 0.00 | 0.00 | 0.00 | 64 | 1016.0 |
| 20260505070954 | 17 | 229 | 6.4 | 9.7 | 0.00 | 0.00 | 0.00 | 63 | 1016.0 |
| 20260505070450 | 17 | 248 | 6.4 | 9.7 | 0.00 | 0.00 | 0.00 | 63 | 1016.0 |
| 20260505065946 | 17 | 189 | 6.4 | 9.7 | 0.00 | 0.00 | 0.00 | 63 | 1016.0 |
| 20260505065443 | 17 | 226 | 8.0 | 11.3 | 0.00 | 0.00 | 0.00 | 62 | 1015.7 |
| 20260505064939 | 17 | 188 | 11.3 | 12.9 | 0.00 | 0.00 | 0.00 | 61 | 1016.0 |
| 20260505064436 | 17 | 227 | 6.4 | 9.7 | 0.00 | 0.00 | 0.00 | 62 | 1015.8 |
| 20260505063935 | 17 | 220 | 8.0 | 12.9 | 0.00 | 0.00 | 0.00 | 62 | 1015.9 |
| 20260505063431 | 17 | 213 | 8.0 | 9.7 | 0.00 | 0.00 | 0.00 | 61 | 1016.0 |
| 20260505062927 | 17 | 234 | 9.7 | 12.9 | 0.00 | 0.00 | 0.00 | 61 | 1015.9 |
| 20260505062425 | 17 | 206 | 8.0 | 12.9 | 0.00 | 0.00 | 0.00 | 61 | 1016.0 |
| 20260505061921 | 17 | 233 | 8.0 | 11.3 | 0.00 | 0.00 | 0.00 | 61 | 1016.1 |
| 20260505061420 | 17 | 241 | 11.3 | 12.9 | 0.00 | 0.00 | 0.00 | 61 | 1015.8 |
| 20260505060917 | 17 | 261 | 8.0 | 11.3 | 0.00 | 0.00 | 0.00 | 60 | 1015.9 |
| 20260505060414 | 18 | 234 | 9.7 | 12.9 | 0.00 | 0.00 | 0.00 | 60 | 1016.1 |
| 20260505055910 | 18 | 223 | 11.3 | 14.5 | 0.00 | 0.00 | 0.00 | 60 | 1016.2 |
| 20260505055406 | 18 | 240 | 11.3 | 11.3 | 0.00 | 0.00 | 0.00 | 60 | 1016.3 |
| 20260505054903 | 18 | 221 | 6.4 | 8.0 | 0.00 | 0.00 | 0.00 | 60 | 1015.9 |
| 20260505054400 | 18 | 203 | 8.0 | 9.7 | 0.00 | 0.00 | 0.00 | 60 | 1016.3 |
| 20260505053858 | 17 | 233 | 8.0 | 9.7 | 0.00 | 0.00 | 0.00 | 60 | 1016.3 |
| 20260505053355 | 18 | 317 | 4.8 | 8.0 | 0.00 | 0.00 | 0.00 | 61 | 1016.3 |
| 20260505052852 | 18 | 228 | 6.4 | 8.0 | 0.00 | 0.00 | 0.00 | 60 | 1016.1 |
| 20260505052349 | 18 | 240 | 6.4 | 11.3 | 0.00 | 0.00 | 0.00 | 60 | 1016.3 |
| 20260505051846 | 18 | 219 | 8.0 | 9.7 | 0.00 | 0.00 | 0.00 | 60 | 1016.4 |
| 20260505051343 | 18 | 263 | 8.0 | 8.0 | 0.00 | 0.00 | 0.00 | 60 | 1016.3 |
| 20260505050841 | 18 | 210 | 6.4 | 8.0 | 0.00 | 0.00 | 0.00 | 59 | 1016.3 |
| 20260505050340 | 18 | 231 | 6.4 | 8.0 | 0.00 | 0.00 | 0.00 | 59 | 1016.1 |
| 20260505041307 | 20 | 248 | 8.0 | 9.7 | 0.00 | 0.00 | 0.00 | 55 | 1016.1 |
| 20260505040804 | 20 | 239 | 9.7 | 11.3 | 0.00 | 0.00 | 0.00 | 54 | 1015.8 |
| 20260505040301 | 20 | 230 | 11.3 | 12.9 | 0.00 | 0.00 | 0.00 | 53 | 1015.9 |
| 20260505035758 | 20 | 292 | 6.4 | 8.0 | 0.00 | 0.41 | 0.41 | 53 | 1016.0 |
| 20260505035253 | 20 | 242 | 12.9 | 14.5 | 0.00 | 0.41 | 0.41 | 53 | 1015.8 |
| 20260505034751 | 20 | 224 | 12.9 | 16.1 | 0.00 | 0.41 | 0.41 | 53 | 1015.6 |
| 20260505034248 | 21 | 278 | 9.7 | 11.3 | 0.00 | 0.41 | 0.41 | 53 | 1015.6 |
| 20260505033744 | 20 | 222 | 11.3 | 12.9 | 0.00 | 0.41 | 0.41 | 53 | 1015.4 |
| 20260505033242 | 20 | 272 | 11.3 | 12.9 | 0.00 | 0.41 | 0.41 | 53 | 1015.5 |
| 20260505032740 | 20 | 262 | 14.5 | 16.1 | 0.00 | 0.41 | 0.41 | 53 | 1015.5 |
| 20260505032235 | 20 | 240 | 12.9 | 16.1 | 0.00 | 0.41 | 0.41 | 53 | 1015.4 |
| 20260505031733 | 20 | 188 | 6.4 | 8.0 | 0.00 | 0.41 | 0.41 | 54 | 1015.4 |
| 20260505031229 | 20 | 240 | 8.0 | 9.7 | 0.00 | 0.41 | 0.41 | 54 | 1015.3 |
| 20260505030726 | 20 | 211 | 9.7 | 11.3 | 0.00 | 0.41 | 0.41 | 54 | 1015.1 |
| 20260505030222 | 20 | 216 | 4.8 | 9.7 | 0.00 | 0.41 | 0.41 | 54 | 1015.2 |
| 20260505025718 | 20 | 245 | 6.4 | 8.0 | 0.00 | 0.41 | 0.41 | 55 | 1015.3 |
| 20260505025217 | 20 | 228 | 4.8 | 8.0 | 0.00 | 0.41 | 0.41 | 55 | 1015.0 |
| 20260505024714 | 20 | 230 | 9.7 | 11.3 | 0.00 | 0.41 | 0.41 | 54 | 1015.1 |
| 20260505024211 | 20 | 219 | 12.9 | 14.5 | 0.00 | 0.41 | 0.41 | 54 | 1014.7 |
| 20260505023709 | 20 | 207 | 8.0 | 11.3 | 0.00 | 0.41 | 0.41 | 54 | 1015.0 |
| 20260505023206 | 20 | 251 | 6.4 | 8.0 | 0.00 | 0.41 | 0.41 | 54 | 1015.0 |
| 20260505022703 | 20 | 209 | 6.4 | 9.7 | 0.00 | 0.41 | 0.41 | 55 | 1014.6 |
| 20260505022200 | 20 | 187 | 9.7 | 11.3 | 0.00 | 0.41 | 0.41 | 55 | 1014.6 |
| 20260505021657 | 20 | 269 | 8.0 | 11.3 | 0.00 | 0.41 | 0.41 | 55 | 1014.4 |
| 20260505021153 | 20 | 220 | 6.4 | 8.0 | 0.00 | 0.41 | 0.41 | 56 | 1014.1 |
| 20260505020649 | 20 | 260 | 6.4 | 9.7 | 0.00 | 0.41 | 0.41 | 55 | 1014.5 |
| 20260505020145 | 20 | 227 | 8.0 | 9.7 | 0.00 | 0.41 | 0.41 | 56 | 1014.5 |
| 20260505015643 | 20 | 213 | 4.8 | 4.8 | 0.00 | 0.41 | 0.41 | 57 | 1014.3 |
| 20260505015139 | 20 | 157 | 3.2 | 3.2 | 0.00 | 0.41 | 0.41 | 57 | 1014.4 |
| 20260505014636 | 20 | 300 | 1.6 | 3.2 | 0.00 | 0.41 | 0.41 | 58 | 1014.5 |
| 20260505014133 | 20 | 327 | 3.2 | 3.2 | 0.00 | 0.41 | 0.41 | 57 | 1014.3 |
| 20260505013631 | 20 | 226 | 3.2 | 4.8 | 0.00 | 0.41 | 0.41 | 57 | 1014.3 |
| 20260505013127 | 20 | 252 | 3.2 | 3.2 | 0.00 | 0.41 | 0.41 | 57 | 1014.3 |
| 20260505012626 | 20 | 191 | 4.8 | 8.0 | 0.00 | 0.41 | 0.41 | 56 | 1014.3 |
| 20260505012122 | 20 | 246 | 4.8 | 8.0 | 0.00 | 0.41 | 0.41 | 56 | 1014.4 |
| 20260505011618 | 20 | 310 | 1.6 | 3.2 | 0.00 | 0.41 | 0.41 | 56 | 1014.5 |
| 20260505011115 | 20 | 228 | 3.2 | 3.2 | 0.00 | 0.41 | 0.41 | 56 | 1014.4 |
| 20260505010610 | 20 | 240 | 1.6 | 3.2 | 0.00 | 0.41 | 0.41 | 55 | 1014.2 |
| 20260505010108 | 20 | 289 | 1.6 | 3.2 | 0.00 | 0.41 | 0.41 | 55 | 1014.2 |
| 20260505005604 | 20 | 343 | 1.6 | 3.2 | 0.00 | 0.41 | 0.41 | 54 | 1014.1 |
| 20260505005101 | 21 | 44 | 3.2 | 4.8 | 0.00 | 0.41 | 0.41 | 54 | 1014.3 |
| 20260505004558 | 21 | 272 | 3.2 | 4.8 | 0.00 | 0.41 | 0.41 | 53 | 1014.2 |
| 20260505004055 | 21 | 231 | 6.4 | 8.0 | 0.00 | 0.41 | 0.41 | 53 | 1014.4 |
| 20260505003552 | 21 | 198 | 8.0 | 8.0 | 0.00 | 0.41 | 0.41 | 52 | 1014.4 |
| 20260505003050 | 21 | 224 | 6.4 | 8.0 | 0.00 | 0.41 | 0.41 | 52 | 1014.4 |
| 20260505002550 | 21 | 247 | 4.8 | 8.0 | 0.00 | 0.41 | 0.41 | 52 | 1014.4 |
| 20260505002049 | 21 | 156 | 8.0 | 11.3 | 0.00 | 0.41 | 0.41 | 52 | 1014.6 |
| 20260505001546 | 22 | 220 | 8.0 | 9.7 | 0.00 | 0.41 | 0.41 | 52 | 1014.5 |
| 20260505001043 | 22 | 214 | 4.8 | 4.8 | 0.00 | 0.41 | 0.41 | 52 | 1014.5 |
| 20260505000540 | 22 | 231 | 4.8 | 8.0 | 0.00 | 0.41 | 0.41 | 52 | 1014.6 |
| 20260505000038 | 22 | 224 | 6.4 | 8.0 | 0.00 | 0.41 | 0.41 | 51 | 1014.7 |
| 20260504235534 | 22 | 244 | 6.4 | 8.0 | 0.00 | 0.41 | 0.41 | 50 | 1014.6 |
| 20260504235031 | 23 | 216 | 8.0 | 9.7 | 0.00 | 0.41 | 0.41 | 49 | 1014.6 |
| 20260504234528 | 23 | 248 | 9.7 | 14.5 | 0.00 | 0.41 | 0.41 | 48 | 1015.0 |
| 20260504234025 | 23 | 215 | 11.3 | 14.5 | 0.00 | 0.41 | 0.41 | 48 | 1014.6 |
| 20260504233520 | 23 | 255 | 11.3 | 11.3 | 0.00 | 0.41 | 0.41 | 48 | 1015.1 |
| 20260504233018 | 24 | 241 | 6.4 | 11.3 | 0.00 | 0.41 | 0.41 | 48 | 1014.8 |
| 20260504232514 | 23 | 216 | 8.0 | 9.7 | 0.00 | 0.41 | 0.41 | 48 | 1015.1 |
| 20260504232012 | 24 | 248 | 9.7 | 11.3 | 0.00 | 0.41 | 0.41 | 48 | 1014.8 |
| 20260504231508 | 23 | 225 | 8.0 | 8.0 | 0.00 | 0.41 | 0.41 | 49 | 1015.2 |
| 20260504231004 | 23 | 191 | 6.4 | 9.7 | 0.00 | 0.41 | 0.41 | 50 | 1015.1 |
| 20260504230501 | 23 | 222 | 8.0 | 11.3 | 0.00 | 0.41 | 0.41 | 49 | 1015.2 |
| 20260504230000 | 23 | 209 | 6.4 | 11.3 | 0.00 | 0.41 | 0.41 | 48 | 1015.1 |
| 20260504225456 | 24 | 213 | 16.1 | 17.7 | 0.00 | 0.41 | 0.41 | 45 | 1015.3 |
| 20260504224954 | 25 | 342 | 8.0 | 11.3 | 0.00 | 0.41 | 0.41 | 45 | 1015.3 |
| 20260504224450 | 25 | 244 | 14.5 | 16.1 | 0.00 | 0.41 | 0.41 | 45 | 1015.4 |
| 20260504223947 | 25 | 251 | 11.3 | 12.9 | 0.00 | 0.41 | 0.41 | 45 | 1015.4 |
| 20260504223443 | 25 | 215 | 11.3 | 16.1 | 0.00 | 0.41 | 0.41 | 45 | 1015.3 |
| 20260504222939 | 25 | 221 | 17.7 | 17.7 | 0.00 | 0.41 | 0.41 | 43 | 1015.0 |
| 20260504222437 | 25 | 270 | 12.9 | 16.1 | 0.00 | 0.41 | 0.41 | 44 | 1015.1 |
| 20260504221934 | 25 | 236 | 12.9 | 14.5 | 0.00 | 0.41 | 0.41 | 43 | 1015.1 |
| 20260504221431 | 25 | 233 | 8.0 | 11.3 | 0.00 | 0.41 | 0.41 | 45 | 1015.2 |
| 20260504220928 | 25 | 228 | 20.9 | 24.1 | 0.00 | 0.41 | 0.41 | 43 | 1015.2 |
| 20260504220425 | 25 | 218 | 9.7 | 11.3 | 0.00 | 0.41 | 0.41 | 46 | 1015.5 |
| 20260504215922 | 25 | 211 | 11.3 | 11.3 | 0.00 | 0.41 | 0.41 | 44 | 1015.2 |
| 20260504215419 | 25 | 275 | 11.3 | 14.5 | 0.00 | 0.41 | 0.41 | 44 | 1015.1 |
| 20260504214915 | 25 | 209 | 11.3 | 14.5 | 0.00 | 0.41 | 0.41 | 46 | 1015.4 |
| 20260504214412 | 25 | 251 | 11.3 | 14.5 | 0.00 | 0.41 | 0.41 | 46 | 1015.4 |
| 20260504213908 | 25 | 241 | 12.9 | 16.1 | 0.00 | 0.41 | 0.41 | 45 | 1015.4 |
| 20260504213404 | 25 | 238 | 12.9 | 17.7 | 0.00 | 0.41 | 0.41 | 45 | 1015.2 |
| 20260504212902 | 25 | 247 | 12.9 | 14.5 | 0.00 | 0.41 | 0.41 | 45 | 1015.4 |
| 20260504212357 | 25 | 286 | 11.3 | 14.5 | 0.00 | 0.41 | 0.41 | 45 | 1015.4 |
| 20260504211855 | 25 | 205 | 14.5 | 16.1 | 0.00 | 0.41 | 0.41 | 45 | 1015.3 |
| 20260504211351 | 25 | 253 | 12.9 | 17.7 | 0.00 | 0.41 | 0.41 | 46 | 1015.4 |
| 20260504210849 | 25 | 237 | 19.3 | 25.7 | 0.00 | 0.41 | 0.41 | 43 | 1015.3 |
| 20260504210346 | 25 | 254 | 14.5 | 16.1 | 0.00 | 0.41 | 0.41 | 45 | 1015.5 |
| 20260504205843 | 25 | 252 | 12.9 | 14.5 | 0.00 | 0.41 | 0.41 | 44 | 1015.7 |
| 20260504205341 | 25 | 296 | 16.1 | 22.5 | 0.00 | 0.41 | 0.41 | 43 | 1015.8 |
| 20260504204838 | 25 | 220 | 8.0 | 9.7 | 0.00 | 0.41 | 0.41 | 46 | 1015.4 |
| 20260504204337 | 25 | 257 | 11.3 | 14.5 | 0.00 | 0.41 | 0.41 | 46 | 1015.9 |
| 20260504203836 | 25 | 45 | 6.4 | 11.3 | 0.00 | 0.41 | 0.41 | 47 | 1015.6 |
| 20260504203332 | 25 | 198 | 16.1 | 25.7 | 0.00 | 0.41 | 0.41 | 45 | 1015.8 |
| 20260504202828 | 25 | 218 | 16.1 | 22.5 | 0.00 | 0.41 | 0.41 | 46 | 1015.6 |
| 20260504202326 | 25 | 297 | 19.3 | 24.1 | 0.00 | 0.41 | 0.41 | 44 | 1015.8 |
| 20260504201822 | 25 | 233 | 14.5 | 17.7 | 0.00 | 0.41 | 0.41 | 45 | 1015.9 |
| 20260504201320 | 25 | 265 | 12.9 | 14.5 | 0.00 | 0.41 | 0.41 | 49 | 1015.9 |
| 20260504200817 | 25 | 300 | 14.5 | 16.1 | 0.00 | 0.41 | 0.41 | 46 | 1016.1 |
| 20260504200313 | 25 | 259 | 14.5 | 17.7 | 0.00 | 0.41 | 0.41 | 46 | 1016.0 |
| 20260504195809 | 25 | 259 | 9.7 | 12.9 | 0.00 | 0.41 | 0.41 | 47 | 1016.1 |
| 20260504195305 | 25 | 259 | 12.9 | 14.5 | 0.00 | 0.41 | 0.41 | 49 | 1016.0 |
| 20260504194802 | 25 | 264 | 12.9 | 16.1 | 0.00 | 0.41 | 0.41 | 49 | 1016.3 |
| 20260504194259 | 24 | 244 | 11.3 | 12.9 | 0.00 | 0.41 | 0.41 | 48 | 1016.3 |
| 20260504193755 | 24 | 207 | 16.1 | 22.5 | 0.00 | 0.41 | 0.41 | 51 | 1016.6 |
| 20260504193252 | 25 | 278 | 19.3 | 27.4 | 0.00 | 0.41 | 0.41 | 48 | 1016.5 |
| 20260504192751 | 24 | 266 | 8.0 | 11.3 | 0.00 | 0.41 | 0.41 | 53 | 1016.4 |
| 20260504192248 | 24 | 211 | 14.5 | 16.1 | 0.00 | 0.41 | 0.41 | 48 | 1016.6 |
| 20260504191747 | 24 | 216 | 12.9 | 14.5 | 0.00 | 0.41 | 0.41 | 51 | 1016.6 |
| 20260504191243 | 24 | 305 | 14.5 | 16.1 | 0.00 | 0.41 | 0.41 | 49 | 1016.7 |
| 20260504190739 | 24 | 248 | 14.5 | 20.9 | 0.00 | 0.41 | 0.41 | 52 | 1016.6 |
| 20260504190236 | 24 | 218 | 12.9 | 14.5 | 0.00 | 0.41 | 0.41 | 51 | 1016.4 |
| 20260504185732 | 23 | 249 | 16.1 | 17.7 | 0.00 | 0.41 | 0.41 | 52 | 1016.6 |
| 20260504185229 | 23 | 225 | 16.1 | 17.7 | 0.00 | 0.41 | 0.41 | 50 | 1016.5 |
| 20260504184725 | 23 | 257 | 9.7 | 12.9 | 0.00 | 0.41 | 0.41 | 52 | 1016.8 |
| 20260504184221 | 23 | 164 | 16.1 | 24.1 | 0.00 | 0.41 | 0.41 | 55 | 1016.8 |
| 20260504183717 | 23 | 230 | 16.1 | 20.9 | 0.00 | 0.41 | 0.41 | 52 | 1016.7 |
| 20260504183214 | 23 | 177 | 11.3 | 20.9 | 0.00 | 0.41 | 0.41 | 53 | 1016.9 |
| 20260504182712 | 22 | 218 | 14.5 | 20.9 | 0.00 | 0.41 | 0.41 | 54 | 1016.8 |
| 20260504182209 | 22 | 217 | 11.3 | 12.9 | 0.00 | 0.41 | 0.41 | 54 | 1016.7 |
| 20260504181707 | 22 | 225 | 17.7 | 22.5 | 0.00 | 0.41 | 0.41 | 54 | 1016.8 |
| 20260504181204 | 22 | 267 | 16.1 | 27.4 | 0.00 | 0.41 | 0.41 | 54 | 1016.9 |
| 20260504180703 | 22 | 214 | 16.1 | 17.7 | 0.00 | 0.41 | 0.41 | 54 | 1016.9 |
| 20260504180201 | 22 | 222 | 14.5 | 20.9 | 0.00 | 0.41 | 0.41 | 55 | 1016.9 |
| 20260504175658 | 22 | 225 | 22.5 | 29.0 | 0.00 | 0.41 | 0.41 | 55 | 1017.0 |
| 20260504175155 | 22 | 217 | 9.7 | 12.9 | 0.00 | 0.41 | 0.41 | 58 | 1017.0 |
| 20260504174653 | 22 | 225 | 9.7 | 11.3 | 0.00 | 0.41 | 0.41 | 59 | 1017.1 |
| 20260504174149 | 22 | 224 | 12.9 | 17.7 | 0.00 | 0.41 | 0.41 | 56 | 1017.0 |
| 20260504173646 | 22 | 218 | 16.1 | 17.7 | 0.00 | 0.41 | 0.41 | 56 | 1016.9 |
| 20260504173144 | 21 | 255 | 14.5 | 17.7 | 0.00 | 0.41 | 0.41 | 59 | 1017.1 |
| 20260504172640 | 22 | 221 | 19.3 | 22.5 | 0.00 | 0.41 | 0.41 | 56 | 1017.2 |
| 20260504172137 | 21 | 215 | 16.1 | 20.9 | 0.00 | 0.41 | 0.41 | 56 | 1017.4 |
| 20260504171633 | 21 | 211 | 8.0 | 9.7 | 0.00 | 0.41 | 0.41 | 58 | 1017.3 |
| 20260504171131 | 21 | 167 | 19.3 | 22.5 | 0.00 | 0.41 | 0.41 | 56 | 1017.5 |
| 20260504170627 | 21 | 200 | 12.9 | 16.1 | 0.00 | 0.41 | 0.41 | 57 | 1017.6 |
| 20260504170125 | 21 | 249 | 12.9 | 14.5 | 0.00 | 0.41 | 0.41 | 61 | 1017.4 |
| 20260504151010 | 16 | 220 | 17.7 | 24.1 | 0.00 | 0.41 | 0.41 | 64 | 1018.9 |
| 20260504150508 | 16 | 142 | 14.5 | 22.5 | 0.00 | 0.41 | 0.41 | 64 | 1019.0 |
| 20260504140933 | 13 | 214 | 8.0 | 11.3 | 0.00 | 0.41 | 0.41 | 72 | 1019.4 |
| 20260504140430 | 13 | 229 | 8.0 | 11.3 | 0.00 | 0.41 | 0.41 | 72 | 1019.1 |
| 20260504130355 | 12 | 224 | 14.5 | 16.1 | 0.00 | 0.41 | 0.41 | 77 | 1019.9 |
| 20260504120317 | 10 | 199 | 4.8 | 9.7 | 0.00 | 0.41 | 0.41 | 92 | 1019.3 |
| 20260504110242 | 10 | 194 | 9.7 | 16.1 | 0.18 | 0.41 | 0.41 | 87 | 1019.9 |